星链-2171 (STARLINK-2171 )

导读

STARLINK-2171是美国航天企业SpaceX星链卫星互联网项目中的卫星,于2021年3月4日发射升空,归属发射国家美国。它属于星链低轨卫星星座组网卫星,主要为全球提供高速卫星互联网接入服务,属于星链第二批组网卫星中的一员,承担地面网络覆盖盲区的通信服务补充任务。

Basic Information
目录编号:
47754
目录名称:
STARLINK-2171
国际标识:
2021-017AJ
轨道中心:
EARTH
卫星名称:
星链-2171
卫星全名:
星链-2171 (STARLINK-2171 )
卫星状态:
已陨落 最后检测时间 2026-06-08
发射日期:
2021-03-04 UTC
国别 :
美国 (US)
星等 :
--
Orbit Information
数据来源 国际轨道数据
星历时间: 2026-06-08T15:38:01+0800
轨道信息已过期10天
半长轴: 6550.786km
偏心率: 0.0008701
轨道倾角: 53.021°
近地点辐角 240.617°
升交点赤经 69.073°
平近点角 119.401°
近地点: 166.949km
远地点: 178.349km
周期: 87.943分钟
每日圈数: 16.3743
Detailed Information
固有亮度:
5
最大亮度:
2.5
卫星平台:
Starlink V1.0
覆盖范围:
全球
运营商:
太空探索技术公司
运营商所在国:
美国
制造商(研发单位):
太空探索技术公司
制造商所在国:
美国
使用方式:
暂无
Satellite Introduction
星链(Starlink)计划是由太空探索技术公司(SpaceX)提出的一个巨型低轨卫星互联网星座项目,计划在2019年至2024年间在太空搭建由约1.2万颗卫星组成的“星链”网络,其中1584颗将部署在地球上空550千米处的近地轨道,并从2020年开始工作。该卫星仍在工作。